Terminal Aerodrome Forecast
Issued by NWS Portland, OR

Home | Current Version | Previous Version | Text Only | Print | Product List | Glossary On
Versions: 1 2 3 4 5 6 7 8 9 10 11 12 13 14 15 16 17 18 19 20 21 22 23 24 25 26 27 28 29 30 31 32 33 34 35 36 37 38 39 40 41 42 43 44 45 46 47 48 49 50
466
FTUS46 KPQR 241736
TAFPDX
TAF
KPDX 241736Z 2418/2518 31007KT P6SM BKN025 OVC060
      TEMPO 2418/2419 SCT025
     FM241900 31007KT P6SM SCT030 BKN050
     FM242200 31010G18KT P6SM SCT050
     FM250400 31010KT P6SM BKN050
     FM251000 31004KT P6SM SCT025 BKN050=

USA.gov is the U.S. government's official web portal to all federal, state and local government web resources and services.